Location: Bow
(51.5261°N, 0.0167°W)
Time: 21:49:15
(UTC+00:00)

Lacrosse 4 Rocket - Pass Details

Date: 18 September 2020
Orbit: 543 x 615 km, 68.0° (Epoch: 21 October)

Event Time Altitude Azimuth Distance (km) Brightness Sun altitude
Rises 20:56:59 0° 327° (NNW) 2,718 6.0 -25.2°
Reaches altitude 10° 20:59:21 10° 338° (NNW) 1,823 4.8 -25.5°
Enters shadow 21:02:10 30° 16° (NNE) 1,007 2.8 -25.8°
